Temperature
4 4 4 4 4 4 5 5 5 5 5 6 6 6 7 7 7 7 7 8 8 8 8 8 8 8 8 9 9 9 9 9 9 10 10 10 10 10 10 10 10 10 10
3 3 4 4 4 4 4 4 5 5 5 5 5 6 6 6 7 7 7 7 7 7 8 8 8 8 8 8 8 9 9 9 9 9 9 9 9 9 10 10 10 10 10
3 3 3 3 3 3 3 4 4 4 4 5 5 5 5 6 6 6 6 7 7 7 7 7 8 8 8 8 8 8 9 8 9 9 9 9 9 9 9 10 10 10 10
2 2 2 2 3 3 3 3 4 4 4 4 4 4 4 5 5 5 6 6 6 6 7 7 7 7 7 7 8 8 8 8 8 9 9 9 9 9 9 9 9 9 9
1 2 2 2 2 2 2 3 3 3 3 4 4 4 4 4 5 5 5 5 6 6 6 6 7 7 7 7 7 8 8 8 8 8 9 9 9 9 9 9 9 9 9
1 1 1 1 1 2 2 2 2 2 3 3 3 3 4 4 4 4 5 5 5 5 5 6 6 6 6 7 7 7 7 7 8 8 8 8 9 9 9 9 9 9 9
0 1 1 1 1 1 1 1 1 2 2 2 2 3 3 3 4 4 4 4 5 5 5 5 5 6 6 6 6 7 7 7 7 8 8 8 8 9 9 9 9 8 8
-0 -0 0 0 0 1 1 1 1 1 1 1 2 2 2 3 3 3 4 4 4 4 4 5 5 5 5 6 6 6 6 7 7 7 8 8 8 8 8 9 9 8 8
-1 -1 -0 -0 -0 0 0 0 0 1 1 1 1 2 2 2 3 3 3 3 3 4 4 4 4 5 5 5 5 6 6 6 6 7 7 7 8 8 8 8 9 8 8
-1 -1 -1 -1 -0 -0 -0 -0 -0 0 0 1 1 1 2 2 2 3 3 3 3 3 3 4 4 4 4 5 5 5 5 5 6 6 7 7 7 8 8 8 8 8 8
-2 -1 -1 -1 -1 -1 -1 -1 -1 -0 -0 -0 0 1 1 1 2 2 2 2 2 3 3 3 3 4 4 4 4 5 5 5 5 6 6 6 7 7 7 8 8 8 8
-2 -2 -2 -1 -1 -1 -1 -1 -1 -1 -1 -1 -0 0 0 1 1 1 1 2 2 2 2 2 3 3 3 3 4 4 4 4 5 5 6 6 6 7 7 7 7 7 7
-2 -2 -2 -2 -2 -2 -2 -2 -2 -1 -1 -1 -1 -1 -0 0 0 1 1 1 1 2 2 2 2 2 3 3 3 4 4 4 4 5 5 5 6 6 6 6 7 7 7
-3 -3 -3 -3 -2 -2 -2 -2 -2 -2 -2 -1 -1 -1 -1 -0 -0 0 0 1 1 1 1 1 2 2 2 2 3 3 3 3 4 4 4 5 5 5 6 6 6 6 6
-3 -3 -3 -3 -3 -3 -3 -3 -3 -3 -2 -2 -2 -1 -1 -1 -1 -0 -0 0 0 0 0 1 1 1 2 2 2 2 2 3 3 4 4 4 4 5 5 5 6 6 6
-4 -4 -4 -4 -4 -4 -3 -3 -3 -3 -3 -3 -2 -2 -2 -2 -1 -1 -1 -0 -0 -0 -0 0 1 1 1 1 2 2 2 2 3 3 3 4 4 4 5 5 5 5 5
-4 -4 -4 -4 -4 -4 -4 -4 -4 -4 -4 -3 -3 -3 -3 -2 -2 -2 -2 -1 -1 -1 -1 -0 -0 0 1 1 1 1 1 1 2 2 2 3 3 4 4 4 4 5 5
-5 -5 -5 -5 -5 -5 -5 -5 -5 -4 -4 -4 -4 -3 -3 -3 -3 -2 -2 -2 -2 -2 -1 -1 -1 -0 0 0 0 1 1 1 1 1 2 2 3 3 3 3 4 4 4
-5 -5 -5 -5 -5 -5 -5 -5 -5 -5 -5 -5 -4 -4 -4 -4 -3 -3 -3 -3 -3 -2 -2 -2 -1 -1 -1 -1 -0 -0 0 0 1 1 1 2 2 2 2 3 3 3 3
-5 -6 -6 -6 -6 -5 -6 -6 -6 -5 -5 -5 -5 -5 -5 -4 -4 -4 -4 -3 -3 -3 -3 -2 -2 -2 -1 -1 -1 -1 -1 -0 -0 0 1 1 1 1 2 2 2 2 2
-6 -6 -6 -6 -6 -6 -6 -6 -6 -6 -6 -6 -5 -5 -5 -5 -5 -5 -4 -4 -4 -4 -3 -3 -3 -2 -2 -2 -2 -1 -1 -1 -1 -1 -0 0 1 1 1 1 1 2 2
-6 -7 -7 -7 -7 -7 -7 -7 -6 -6 -6 -6 -6 -6 -5 -5 -5 -5 -5 -5 -5 -4 -4 -4 -4 -3 -3 -3 -3 -2 -2 -2 -1 -1 -1 -0 -0 0 0 0 1 1 1
-7 -7 -7 -7 -7 -7 -7 -7 -7 -7 -7 -7 -6 -6 -6 -6 -6 -6 -6 -5 -5 -5 -5 -5 -5 -4 -4 -4 -3 -3 -3 -2 -2 -2 -2 -1 -1 -1 -0 -0 -0 -0 0
-8 -8 -8 -8 -8 -8 -8 -8 -8 -7 -7 -7 -7 -7 -6 -6 -6 -6 -6 -6 -6 -6 -5 -5 -5 -5 -5 -4 -4 -4 -3 -3 -3 -3 -2 -2 -2 -2 -1 -1 -1 -1 -1
-8 -8 -8 -8 -8 -8 -8 -8 -8 -8 -8 -8 -7 -7 -7 -7 -7 -7 -7 -7 -6 -6 -6 -6 -6 -5 -5 -5 -5 -4 -4 -4 -4 -4 -3 -3 -3 -3 -2 -2 -2 -1 -1
-9 -9 -9 -9 -9 -9 -8 -8 -8 -8 -8 -8 -8 -8 -8 -8 -7 -7 -7 -7 -7 -7 -6 -6 -6 -6 -6 -5 -5 -5 -5 -4 -4 -4 -4 -4 -4 -3 -3 -3 -2 -2 -2
Wind_Speed
2 2 2 2 2 3 3 3 2 2 1 1 1 1 1 1 1 1 1 1 1 1 1 0 1 1 2 2 2 2 3 3 3 3 2 2 2 2 2 3 4 4 5
3 3 3 2 2 3 3 3 3 3 2 1 1 2 2 2 2 1 1 1 2 2 2 1 1 1 2 3 2 2 2 3 4 3 3 2 0 1 1 2 2 3 5
3 3 3 3 3 4 3 4 3 3 2 1 1 1 1 1 1 2 2 2 3 3 2 2 2 2 2 3 3 3 2 4 3 2 3 3 3 2 1 1 2 2 2
4 4 5 5 4 4 4 4 4 4 2 1 1 2 2 3 3 3 3 2 3 3 3 3 3 2 2 4 4 3 2 4 4 3 2 1 2 3 2 1 1 2 2
4 5 5 5 5 4 4 4 4 4 3 1 2 2 3 3 2 2 3 3 2 2 2 2 2 2 2 3 4 4 4 4 4 3 2 1 1 1 3 3 3 2 2
5 4 4 4 4 4 4 4 4 4 3 2 2 2 3 3 3 3 3 3 3 2 3 2 2 3 3 4 4 4 5 5 5 3 3 3 3 3 3 4 4 3 2
5 5 5 5 5 5 4 4 4 4 4 3 3 3 3 3 4 3 3 3 2 2 4 3 3 3 4 4 4 4 5 6 6 5 4 4 4 3 2 3 3 2 2
5 5 4 5 5 5 5 5 5 5 4 4 3 3 3 3 3 3 3 4 3 3 4 4 4 4 4 4 4 4 5 5 6 6 6 4 4 3 3 3 4 3 2
5 4 4 4 5 5 5 5 6 5 4 4 4 3 3 3 3 2 2 3 3 3 4 4 4 5 5 4 4 4 5 5 6 6 6 5 4 3 3 3 5 5 4
5 4 4 4 4 5 5 5 6 5 5 5 4 4 3 3 3 2 3 3 3 3 4 4 5 5 4 4 4 4 4 5 5 5 6 5 4 4 4 4 4 4 4
5 5 4 4 5 5 5 5 5 5 5 5 5 4 4 3 3 3 3 3 3 3 4 4 4 4 4 4 4 4 4 5 5 5 6 6 5 4 4 4 4 4 4
5 5 5 5 5 5 5 4 5 5 5 5 5 4 4 4 4 3 3 3 3 3 4 5 4 3 4 3 4 5 5 5 6 6 6 6 5 6 5 5 6 5 4
5 5 5 5 5 6 5 5 5 5 5 5 5 4 4 4 4 4 4 3 3 4 5 4 4 4 4 4 3 4 5 5 6 6 6 6 6 7 6 6 6 5 4
5 5 5 5 5 5 5 5 6 6 5 5 5 4 4 4 4 4 4 4 4 4 4 4 4 4 5 5 4 4 4 5 5 6 6 7 7 7 8 6 6 5 5
6 6 6 6 6 5 5 5 6 6 6 5 5 5 5 4 4 4 4 4 4 5 5 4 4 4 4 5 4 4 5 5 6 5 6 6 6 7 6 6 6 5 5
7 7 6 7 6 6 5 6 6 6 6 6 5 5 5 5 4 4 4 5 4 4 5 4 4 4 5 6 7 5 5 5 5 6 5 5 6 6 7 7 7 7 7
8 8 8 7 6 5 5 5 6 6 6 6 5 5 5 5 5 5 5 5 5 5 4 4 4 4 5 7 7 7 5 5 5 6 5 5 4 5 4 5 5 6 7
8 8 7 7 6 5 5 5 6 5 5 5 5 5 5 6 6 5 5 5 4 4 4 4 4 4 5 6 7 7 5 4 5 5 5 5 5 5 5 4 3 3 5
6 7 7 7 6 6 6 6 6 5 5 5 6 6 5 6 6 6 5 4 4 4 4 4 4 4 4 6 6 6 3 4 4 4 5 5 5 6 6 5 4 4 4
6 6 6 6 6 6 5 5 6 6 6 6 6 6 5 6 6 6 5 4 4 4 4 4 4 3 4 6 6 5 3 3 3 3 4 6 6 6 6 6 6 6 5
6 6 6 6 5 6 6 6 6 6 7 6 6 6 6 5 5 5 4 4 4 4 3 4 4 3 4 5 6 5 3 3 3 3 3 3 4 5 6 7 6 7 5
7 6 6 6 6 5 5 6 7 7 6 6 6 6 6 5 5 4 4 4 3 3 3 3 3 3 3 4 5 5 4 4 3 3 3 3 4 4 5 5 6 6 5
6 6 5 6 6 6 5 6 7 7 6 6 6 6 6 5 5 4 4 4 3 2 3 2 3 3 3 4 6 6 5 5 3 2 3 3 3 3 2 3 4 4 4
5 5 5 6 6 6 6 6 7 7 6 6 6 6 6 6 5 4 3 3 3 2 2 2 3 3 3 3 3 3 3 3 3 2 2 2 2 2 2 2 2 2 2
5 5 5 5 7 6 6 7 7 6 6 6 6 6 5 5 5 5 4 4 3 3 3 2 3 3 3 4 5 4 3 2 2 1 1 0 0 1 1 1 1 1 1
5 5 6 6 7 7 7 7 6 5 5 6 6 5 4 4 4 4 5 6 6 7 7 6 5 4 5 5 5 5 5 4 2 1 0 1 1 1 2 2 1 1 1
Wind_Direction
318 346 356 358 344 344 346 338 336 332 338 343 335 271 264 248 231 337 197 168 205 223 261 215 192 179 189 191 179 155 149 146 131 111 97 49 61 89 115 116 124 131 133
338 349 351 355 332 327 335 333 325 308 292 327 280 257 252 242 239 290 281 223 222 222 227 173 209 212 192 185 188 156 159 170 162 150 142 145 108 354 84 128 145 157 149
335 344 347 347 351 349 338 321 314 310 298 341 316 290 263 244 229 218 215 268 239 224 227 205 211 220 206 197 201 185 187 185 195 188 163 162 183 177 213 172 162 162 157
344 349 347 346 348 341 342 332 330 320 298 310 271 256 243 240 241 211 217 251 249 235 228 209 216 214 217 203 204 201 207 189 195 212 234 217 160 153 167 209 196 174 167
350 345 345 341 339 341 340 329 333 322 329 319 263 258 259 252 238 219 219 218 242 239 245 233 226 221 225 216 208 210 213 208 203 201 212 233 191 158 165 189 193 200 203
347 341 341 343 341 346 345 335 330 318 324 323 289 266 278 284 260 229 218 222 218 217 238 248 242 234 232 222 216 212 219 220 212 210 209 198 192 195 182 188 186 189 212
343 342 347 342 341 345 346 335 329 317 319 317 308 289 276 267 260 237 220 228 226 228 227 250 247 251 247 235 228 212 219 220 210 208 215 222 219 206 193 178 183 187 209
342 342 343 341 339 339 341 338 332 314 319 315 302 300 296 268 259 251 235 234 231 231 246 246 245 251 250 240 235 222 225 223 217 217 213 217 223 210 202 189 175 178 220
334 336 344 344 340 335 337 335 326 316 320 312 307 301 296 292 284 273 244 238 246 264 263 255 242 242 243 236 231 221 225 225 218 219 218 218 217 211 207 197 183 180 200
332 334 335 336 336 331 332 335 324 322 326 320 307 305 295 290 280 271 247 241 246 260 263 259 249 242 243 238 231 228 227 226 226 224 219 221 220 211 205 202 204 200 194
332 330 330 338 340 336 330 327 325 327 328 322 315 314 306 303 292 277 256 243 254 252 258 260 256 249 248 240 224 233 230 230 229 230 226 224 218 213 214 207 205 207 192
326 326 331 338 338 333 331 327 326 325 323 322 319 314 315 313 300 293 289 260 243 253 258 256 247 252 257 254 235 233 234 234 229 227 228 229 221 218 216 212 210 209 199
326 331 332 333 329 326 327 326 322 321 323 323 317 316 317 314 309 306 304 290 261 252 260 254 242 242 247 248 244 237 239 240 239 232 229 229 223 222 220 216 210 206 201
323 325 325 324 320 318 318 321 321 325 325 322 316 317 316 309 308 306 305 296 275 255 258 253 250 250 251 248 245 242 250 250 249 242 236 230 225 225 218 218 211 200 193
321 318 320 321 319 317 319 323 323 326 327 320 319 317 314 311 310 308 303 300 289 273 268 259 256 256 255 252 245 237 247 252 250 248 244 239 232 234 227 223 206 196 197
322 323 320 318 315 312 315 320 321 324 323 317 318 322 319 316 314 310 306 298 289 279 274 264 257 255 261 264 262 254 243 249 252 249 247 242 234 234 233 232 216 200 199
322 322 321 316 311 312 315 310 312 319 314 313 317 324 323 318 312 314 313 305 293 280 273 276 272 265 271 271 266 262 254 249 251 248 241 239 237 233 225 221 215 218 213
323 321 322 323 318 317 321 316 318 314 306 308 315 321 322 315 311 310 304 302 296 289 283 282 281 275 275 274 269 266 258 254 254 252 242 231 224 225 217 214 218 234 234
319 318 321 320 320 322 323 320 320 321 313 313 320 322 320 314 310 306 304 304 302 299 296 290 282 278 280 277 269 264 252 249 254 252 246 235 227 220 211 206 213 231 255
326 327 328 327 329 327 328 321 315 319 320 320 315 311 311 310 308 306 303 301 296 293 291 291 284 276 275 281 277 270 243 251 256 256 249 236 228 218 209 206 207 218 229
330 333 330 328 327 333 335 325 321 319 317 317 314 308 306 306 305 307 307 302 301 301 295 292 291 288 284 285 285 285 260 249 256 255 249 242 232 225 223 223 218 220 218
330 333 333 328 330 337 335 328 321 317 319 319 317 316 316 315 315 312 312 311 309 303 300 301 305 304 299 299 297 299 291 280 260 254 253 248 241 236 235 229 217 217 216
323 328 327 326 329 334 334 325 318 322 323 323 321 322 325 325 322 316 315 317 314 302 301 298 302 308 312 313 311 309 310 302 286 269 268 265 262 256 240 231 220 213 201
321 325 326 328 327 330 330 323 321 325 325 325 324 324 327 326 326 323 319 316 315 306 300 299 303 305 310 312 306 299 303 308 302 293 277 267 266 259 242 243 241 221 199
317 319 318 319 318 322 325 325 329 331 327 324 325 326 327 324 328 327 326 323 318 305 303 290 292 300 303 304 309 306 301 298 282 292 297 289 241 228 223 225 235 215 188
315 317 317 317 318 321 321 323 326 327 325 324 325 325 326 326 326 328 330 330 321 323 324 323 312 304 305 308 318 323 324 328 316 309 275 260 248 236 226 216 206 199 195
Height
1510 1510 1509 1509 1508 1508 1508 1509 1509 1509 1510 1511 1512 1513 1514 1516 1517 1519 1520 1522 1524 1525 1527 1529 1530 1532 1534 1536 1538 1541 1543 1544 1546 1548 1550 1553 1554 1556 1557 1558 1559 1561 1562
1507 1507 1507 1506 1506 1506 1506 1506 1506 1507 1507 1507 1509 1510 1511 1513 1514 1516 1517 1519 1521 1522 1524 1525 1527 1529 1531 1533 1536 1538 1540 1542 1544 1546 1547 1550 1553 1553 1555 1556 1557 1559 1560
1506 1505 1505 1504 1504 1503 1503 1503 1504 1503 1503 1504 1506 1508 1509 1510 1511 1512 1513 1516 1517 1519 1520 1522 1524 1526 1528 1529 1532 1534 1536 1538 1541 1543 1545 1547 1548 1550 1552 1553 1555 1556 1558
1504 1504 1503 1503 1502 1501 1501 1501 1500 1500 1500 1501 1502 1504 1504 1505 1506 1508 1510 1512 1514 1515 1517 1518 1520 1522 1524 1526 1528 1531 1533 1535 1537 1539 1542 1544 1544 1546 1548 1551 1552 1554 1555
1502 1502 1501 1500 1500 1499 1498 1497 1497 1497 1497 1497 1499 1500 1501 1502 1503 1505 1506 1508 1509 1511 1513 1514 1516 1518 1520 1522 1524 1526 1529 1531 1533 1535 1537 1540 1541 1543 1544 1546 1548 1550 1552
1501 1500 1498 1498 1497 1496 1495 1495 1494 1494 1494 1494 1495 1496 1497 1498 1500 1500 1502 1504 1505 1507 1509 1510 1512 1514 1515 1517 1519 1522 1525 1527 1530 1532 1534 1536 1537 1539 1541 1542 1543 1546 1548
1499 1497 1495 1494 1494 1493 1492 1492 1491 1491 1491 1490 1491 1492 1493 1495 1495 1496 1498 1500 1501 1502 1504 1505 1507 1509 1511 1513 1515 1517 1520 1523 1525 1527 1529 1532 1534 1536 1538 1539 1540 1542 1544
1497 1495 1494 1493 1492 1491 1490 1489 1489 1488 1487 1487 1488 1489 1490 1491 1492 1493 1494 1496 1497 1498 1500 1501 1503 1505 1506 1508 1510 1512 1515 1518 1520 1522 1525 1527 1529 1532 1534 1535 1536 1538 1540
1495 1494 1493 1492 1491 1489 1488 1488 1487 1486 1485 1484 1484 1485 1486 1487 1488 1489 1491 1492 1493 1494 1496 1497 1498 1500 1502 1503 1505 1507 1510 1513 1515 1517 1519 1522 1524 1527 1529 1531 1532 1534 1535
1494 1492 1491 1490 1489 1487 1486 1485 1485 1483 1482 1481 1481 1481 1482 1483 1484 1485 1487 1487 1488 1490 1491 1492 1493 1495 1497 1499 1500 1502 1505 1507 1510 1512 1514 1516 1519 1521 1523 1526 1528 1529 1530
1494 1492 1490 1489 1487 1486 1485 1484 1482 1481 1480 1479 1478 1478 1478 1479 1480 1481 1481 1483 1484 1485 1486 1488 1489 1490 1492 1494 1495 1497 1499 1502 1504 1507 1509 1511 1513 1516 1518 1520 1522 1524 1526
1494 1491 1489 1487 1486 1484 1483 1481 1479 1478 1477 1476 1475 1474 1475 1476 1476 1477 1477 1479 1480 1481 1483 1484 1485 1486 1487 1488 1490 1492 1494 1496 1498 1500 1503 1505 1507 1510 1512 1514 1517 1519 1520
1492 1490 1488 1486 1484 1482 1480 1479 1477 1476 1474 1473 1472 1471 1471 1472 1472 1473 1473 1474 1476 1477 1478 1479 1480 1481 1482 1484 1485 1487 1489 1491 1493 1495 1496 1499 1502 1504 1506 1508 1511 1513 1515
1491 1489 1486 1484 1482 1480 1478 1476 1475 1473 1471 1470 1469 1468 1467 1468 1468 1469 1469 1470 1471 1472 1472 1474 1475 1477 1477 1479 1481 1482 1484 1486 1487 1489 1491 1493 1495 1498 1500 1502 1505 1507 1509
1489 1487 1484 1482 1480 1478 1475 1473 1472 1470 1468 1468 1466 1464 1464 1464 1464 1465 1465 1466 1466 1467 1467 1469 1470 1471 1472 1474 1476 1477 1478 1480 1481 1483 1485 1487 1489 1492 1495 1497 1499 1501 1503
1487 1485 1482 1480 1478 1475 1473 1470 1469 1466 1465 1464 1462 1461 1461 1460 1460 1460 1461 1461 1462 1462 1463 1464 1465 1466 1467 1469 1471 1472 1473 1475 1476 1477 1479 1481 1483 1486 1489 1491 1493 1495 1497
1485 1482 1480 1477 1475 1473 1470 1468 1465 1463 1462 1460 1459 1458 1458 1457 1457 1456 1456 1456 1457 1457 1458 1459 1460 1460 1462 1463 1466 1467 1468 1469 1470 1471 1473 1475 1477 1480 1482 1485 1487 1488 1490
1482 1479 1476 1474 1472 1470 1467 1465 1462 1460 1459 1458 1456 1455 1454 1454 1453 1452 1452 1452 1452 1453 1453 1454 1455 1456 1457 1459 1461 1462 1462 1463 1464 1466 1467 1469 1471 1473 1476 1478 1480 1482 1484
1480 1477 1474 1471 1469 1467 1464 1462 1459 1458 1457 1454 1453 1452 1451 1450 1449 1448 1448 1448 1448 1448 1449 1449 1451 1451 1452 1454 1456 1457 1457 1458 1459 1461 1462 1463 1465 1467 1470 1472 1474 1476 1477
1477 1474 1471 1469 1466 1464 1462 1460 1458 1456 1454 1452 1451 1450 1449 1447 1446 1445 1444 1444 1444 1444 1445 1446 1447 1447 1448 1449 1451 1452 1452 1453 1454 1455 1456 1458 1460 1462 1464 1466 1468 1469 1471
1475 1472 1469 1466 1464 1462 1460 1458 1455 1453 1451 1450 1449 1447 1446 1444 1443 1442 1441 1441 1441 1441 1441 1442 1443 1443 1444 1445 1446 1447 1447 1448 1448 1449 1451 1453 1455 1456 1458 1460 1462 1463 1466
1472 1469 1467 1464 1462 1460 1458 1455 1453 1451 1449 1447 1445 1444 1443 1442 1440 1439 1439 1438 1438 1438 1438 1438 1438 1439 1440 1441 1441 1442 1443 1444 1444 1445 1446 1448 1450 1451 1453 1454 1456 1458 1461
1470 1468 1465 1462 1460 1458 1456 1453 1451 1449 1447 1444 1442 1441 1440 1439 1438 1437 1436 1435 1435 1435 1434 1435 1434 1435 1435 1436 1437 1438 1438 1439 1440 1440 1441 1443 1445 1446 1448 1449 1451 1453 1455
1468 1466 1463 1460 1458 1456 1454 1452 1449 1447 1444 1442 1440 1438 1437 1436 1435 1434 1433 1433 1432 1432 1432 1432 1431 1431 1431 1432 1433 1433 1434 1435 1436 1436 1437 1438 1440 1441 1442 1444 1445 1447 1449
1466 1464 1461 1458 1456 1454 1452 1450 1447 1445 1442 1439 1437 1436 1435 1434 1432 1431 1431 1430 1429 1430 1430 1429 1429 1428 1428 1429 1430 1430 1430 1431 1431 1432 1433 1434 1435 1436 1437 1439 1440 1442 1444
1464 1462 1459 1457 1454 1452 1449 1447 1445 1443 1440 1438 1436 1434 1433 1432 1430 1429 1428 1428 1428 1427 1427 1427 1427 1426 1426 1426 1426 1426 1427 1427 1429 1429 1429 1430 1431 1432 1433 1434 1435 1437 1439